sat.trackr.live / text

‹ back to catalog

ONEWEB-0713

NORAD 55175 · 2023-004AM

PAYLOAD ACTIVE UNKNOWN

§ Identity

Operator
Country
UK
Launch date
2023-01-10
Launch site
AFETR
Launch vehicle
Mass (kg)
RCS (m²)

Purposes: comms

External: N2YO · Heavens-Above · Gunter

§ Orbital elements

Epoch: 2026-05-25T01:49:47.283744Z

Period
109.80 min
Inclination
87.8911°
Eccentricity
0.0002049
Mean motion
13.11415889 rev/d
Perigee alt
1,216.1 km
Apogee alt
1,219.2 km
Semi-major
7,595.8 km
B*
-1.4537e-3
RAAN
25.6659°
Arg perigee
90.8981°
Mean anomaly
269.2382°
Rev number
16,279

§ Raw data

ONEWEB-07131 55175U 23004AM  26145.07624171 -.00000503  00000+0 -14537-2 0  99992 55175  87.8911  25.6659 0002049  90.8981 269.2382 13.11415889162790

JSON: /api/v1/satellites/55175 · /tle

For live sub-satellite position, see the globe view (requires WebGL).

§ Visibility from observer

Set your observer location to see the next 7 days of passes ≥ 10°. The values pass through the URL so the page stays shareable.

No JS? Fill the form by hand. The geolocation button needs JavaScript.